Sturgeon Bay, WI

6:46 PM CST on January 17, 2017 (GMT -0600)
Door County Cherryland

Weather History for KSUE - March, 2014

Change the Weather History Date:

Friday, March 7, 2014

  Actual Average Record
Temperature  
Mean Temperature 27 °F -  
Max Temperature 35 °F 36 °F 66 °F (1987)
Min Temperature 19 °F 17 °F -15 °F (1913)
Degree Days  
Heating Degree Days 38    
Moisture  
Dew Point 20 °F    
Average Humidity 74    
Maximum Humidity 86    
Minimum Humidity 60    
Precipitation  
Precipitation 0.00 in - - ()
Sea Level Pressure  
Sea Level Pressure 29.91 in    
Wind  
Wind Speed 11 mph (WSW)    
Max Wind Speed 20 mph    
Max Gust Speed 26 mph    
Visibility 8 miles    
Events      
Averages and records for this station are not official NWS values.
T = Trace of Precipitation, MM = Missing Value Source: NWS Daily Summary

Daily Weather History Graph

Daily Weather History Graph

Search for Another Location

Airport or City:

Trip Planner

Search our weather history database for the weather conditions in past years. The results will help you decide how hot, cold, wet, or windy it might be!

Date:

Astronomy

Mar. 07, 2014 Rise Set
Actual Time 6:16 AM CST 5:45 PM CST
Civil Twilight 5:47 AM CST 6:14 PM CST
Nautical Twilight 5:13 AM CST 6:48 PM CST
Astronomical Twilight 4:39 AM CST 7:22 PM CST
Moon 9:53 AM CST (3/7) 12:05 AM CST (3/7)
Length of Visible Light 12h 27m
Length of Day
11h 28m
Waxing Crescent, 42% of the Moon is Illuminated
Mar 7
Waxing Crescent
Mar 8
First Quarter
Mar 16
Full
Mar 23
Last Quarter
Mar 30
New

Hourly Weather History & Observations

Time (CST) Temp. Windchill Dew Point Humidity Pressure Visibility Wind Dir Wind Speed Gust Speed Precip Events Conditions
12:15 AM 21.2 °F 8.9 °F 14.0 °F 74% 29.98 in 10.0 mi South 12.7 mph - N/A   Clear
12:35 AM 21.2 °F 8.9 °F 15.8 °F 80% 29.97 in 10.0 mi South 12.7 mph - N/A   Clear
12:55 AM 21.2 °F 8.3 °F 15.8 °F 80% 29.96 in 10.0 mi South 13.8 mph - N/A   Clear
1:15 AM 21.2 °F 8.3 °F 15.8 °F 80% 29.96 in 10.0 mi South 13.8 mph 20.7 mph N/A   Clear
1:35 AM 21.2 °F 8.9 °F 14.0 °F 74% 29.97 in 10.0 mi SSW 12.7 mph 20.7 mph N/A   Clear
1:55 AM 21.2 °F 8.9 °F 14.0 °F 74% 29.97 in 10.0 mi SSW 12.7 mph - N/A   Clear
2:15 AM 21.2 °F 8.3 °F 14.0 °F 74% 29.96 in 10.0 mi SSW 13.8 mph - N/A   Clear
2:35 AM 21.2 °F 10.9 °F 14.0 °F 74% 29.95 in 10.0 mi SSW 9.2 mph - N/A   Clear
2:55 AM 19.4 °F 7.9 °F 14.0 °F 80% 29.95 in 10.0 mi SSW 10.4 mph - N/A   Clear
3:15 AM 21.2 °F 10.9 °F 14.0 °F 74% 29.94 in 10.0 mi South 9.2 mph - N/A   Clear
3:35 AM 21.2 °F 9.5 °F 14.0 °F 74% 29.93 in 10.0 mi South 11.5 mph - N/A   Clear
3:55 AM 21.2 °F 10.1 °F 14.0 °F 74% 29.93 in 10.0 mi South 10.4 mph - N/A   Clear
4:15 AM 21.2 °F 10.9 °F 14.0 °F 74% 29.93 in 10.0 mi South 9.2 mph - N/A   Clear
4:35 AM 21.2 °F 10.9 °F 14.0 °F 74% 29.92 in 10.0 mi South 9.2 mph - N/A   Clear
4:55 AM 21.2 °F 10.9 °F 14.0 °F 74% 29.92 in 10.0 mi South 9.2 mph - N/A   Clear
5:15 AM 21.2 °F 10.9 °F 14.0 °F 74% 29.91 in 10.0 mi South 9.2 mph - N/A   Clear
5:35 AM 21.2 °F 9.5 °F 14.0 °F 74% 29.89 in 10.0 mi South 11.5 mph - N/A   Clear
5:55 AM 21.2 °F 11.7 °F 12.2 °F 68% 29.91 in 10.0 mi SSW 8.1 mph - N/A   Mostly Cloudy
6:15 AM 21.2 °F 12.6 °F 14.0 °F 74% 29.91 in 10.0 mi SSW 6.9 mph - N/A   Scattered Clouds
6:35 AM 21.2 °F 12.6 °F 12.2 °F 68% 29.91 in 10.0 mi South 6.9 mph - N/A   Mostly Cloudy
6:55 AM 21.2 °F 11.7 °F 14.0 °F 74% 29.91 in 10.0 mi South 8.1 mph - N/A   Mostly Cloudy
7:15 AM 21.2 °F 12.6 °F 14.0 °F 74% 29.91 in 10.0 mi South 6.9 mph - N/A   Scattered Clouds
7:35 AM 23.0 °F 13.9 °F 15.8 °F 74% 29.90 in 10.0 mi South 8.1 mph - N/A   Clear
7:55 AM 23.0 °F 13.9 °F 15.8 °F 74% 29.90 in 10.0 mi South 8.1 mph - N/A   Clear
8:15 AM 24.8 °F 14.6 °F 15.8 °F 69% 29.89 in 10.0 mi South 10.4 mph - N/A   Clear
8:35 AM 24.8 °F 15.3 °F 15.8 °F 69% 29.89 in 10.0 mi South 9.2 mph - N/A   Clear
8:55 AM 24.8 °F 13.4 °F 15.8 °F 69% 29.88 in 10.0 mi SSW 12.7 mph - N/A   Clear
9:15 AM 26.6 °F 16.8 °F 17.6 °F 69% 29.88 in 10.0 mi SSW 10.4 mph - N/A   Clear
9:35 AM 28.4 °F 19.1 °F 17.6 °F 64% 29.87 in 10.0 mi SSW 10.4 mph 16.1 mph N/A   Clear
9:55 AM 30.2 °F 19.8 °F 19.4 °F 64% 29.86 in 10.0 mi SSW 13.8 mph 18.4 mph N/A   Clear
10:15 AM 30.2 °F 19.8 °F 19.4 °F 64% 29.86 in 10.0 mi SSW 13.8 mph - N/A   Clear
10:35 AM 32.0 °F 23.6 °F 21.2 °F 64% 29.85 in 9.0 mi SW 10.4 mph - N/A   Clear
10:55 AM 33.8 °F 25.8 °F 21.2 °F 60% 29.85 in 10.0 mi SSW 10.4 mph - N/A   Mostly Cloudy
11:15 AM 33.8 °F 27.0 °F 21.2 °F 60% 29.84 in 10.0 mi SSW 8.1 mph - N/A   Mostly Cloudy
11:35 AM 33.8 °F 27.0 °F 21.2 °F 60% 29.84 in 10.0 mi SSW 8.1 mph - N/A   Mostly Cloudy
11:55 AM 33.8 °F 27.7 °F 24.8 °F 70% 29.81 in 10.0 mi South 6.9 mph - N/A   Overcast
12:15 PM 35.6 °F 28.0 °F 24.8 °F 65% 29.82 in 9.0 mi SSW 10.4 mph - N/A   Overcast
12:35 PM 35.6 °F 28.6 °F 24.8 °F 65% 29.82 in 10.0 mi SW 9.2 mph - N/A   Overcast
12:55 PM 35.6 °F 29.9 °F 24.8 °F 65% 29.82 in 10.0 mi SW 6.9 mph - N/A   Overcast
1:15 PM 35.6 °F 28.6 °F 24.8 °F 65% 29.82 in 10.0 mi WSW 9.2 mph - N/A   Overcast
1:35 PM 35.6 °F 27.1 °F 24.8 °F 65% 29.83 in 10.0 mi West 12.7 mph - N/A   Overcast
1:55 PM 35.6 °F 28.0 °F 23.0 °F 60% 29.82 in 10.0 mi West 10.4 mph - N/A   Overcast
2:15 PM 35.6 °F 29.2 °F 24.8 °F 65% 29.82 in 10.0 mi West 8.1 mph - N/A   Overcast
2:35 PM 33.8 °F 26.4 °F 23.0 °F 65% 29.82 in 9.0 mi West 9.2 mph - N/A   Overcast
2:55 PM 35.6 °F 28.6 °F 23.0 °F 60% 29.83 in 9.0 mi West 9.2 mph - N/A   Overcast
3:15 PM 33.8 °F 27.0 °F 23.0 °F 65% 29.83 in 9.0 mi WNW 8.1 mph - N/A   Overcast
3:35 PM 32.0 °F 25.6 °F 24.8 °F 75% 29.84 in 5.0 mi WNW 6.9 mph - N/A   Overcast
3:55 PM 30.2 °F 23.4 °F 26.6 °F 86% 29.85 in 3.0 mi NW 6.9 mph - N/A   Overcast
4:15 PM 30.2 °F 23.4 °F 26.6 °F 86% 29.85 in 4.0 mi WNW 6.9 mph - N/A   Overcast
4:35 PM 30.2 °F 25.4 °F 26.6 °F 86% 29.85 in 4.0 mi WNW 4.6 mph - N/A   Overcast
4:55 PM 30.2 °F 22.6 °F 26.6 °F 86% 29.87 in 5.0 mi NNW 8.1 mph - N/A   Overcast
5:15 PM 30.2 °F 23.4 °F 24.8 °F 80% 29.88 in 5.0 mi NNW 6.9 mph - N/A   Overcast
5:35 PM 30.2 °F 22.6 °F 26.6 °F 86% 29.89 in 4.0 mi NNW 8.1 mph - N/A   Overcast
5:55 PM 30.2 °F 21.9 °F 26.6 °F 86% 29.90 in 4.0 mi NNW 9.2 mph - N/A   Overcast
6:15 PM 30.2 °F 21.9 °F 24.8 °F 80% 29.91 in 4.0 mi NNW 9.2 mph - N/A   Overcast
6:35 PM 30.2 °F 21.3 °F 26.6 °F 86% 29.92 in 5.0 mi NNW 10.4 mph - N/A   Overcast
6:55 PM 30.2 °F 22.6 °F 26.6 °F 86% 29.93 in 4.0 mi NNW 8.1 mph - N/A   Overcast
7:15 PM 30.2 °F 21.9 °F 26.6 °F 86% 29.94 in 4.0 mi NNW 9.2 mph - N/A   Overcast
7:35 PM 30.2 °F 20.2 °F 24.8 °F 80% 29.94 in 5.0 mi NNW 12.7 mph - N/A   Overcast
7:55 PM 30.2 °F 20.2 °F 24.8 °F 80% 29.96 in 7.0 mi NNW 12.7 mph - N/A   Overcast
8:15 PM 30.2 °F 19.8 °F 24.8 °F 80% 29.97 in 6.0 mi NNW 13.8 mph - N/A   Overcast
8:35 PM 30.2 °F 20.8 °F 24.8 °F 80% 29.98 in 5.0 mi NNW 11.5 mph - N/A   Overcast
8:55 PM 30.2 °F 20.8 °F 24.8 °F 80% 29.99 in 5.0 mi North 11.5 mph - N/A   Overcast
9:15 PM 30.2 °F 21.3 °F 26.6 °F 86% 29.99 in 5.0 mi North 10.4 mph - N/A   Overcast
9:35 PM 30.2 °F 20.8 °F 26.6 °F 86% 30.00 in 5.0 mi North 11.5 mph - N/A   Overcast
9:55 PM 30.2 °F 19.8 °F 24.8 °F 80% 30.00 in 6.0 mi North 13.8 mph - N/A   Overcast
10:15 PM 30.2 °F 19.8 °F 24.8 °F 80% 30.01 in 7.0 mi North 13.8 mph 19.6 mph N/A   Overcast
10:35 PM 28.4 °F 16.2 °F 24.8 °F 86% 30.02 in 8.0 mi North 17.3 mph 21.9 mph N/A   Overcast
10:55 PM 28.4 °F 15.8 °F 23.0 °F 80% 30.03 in 10.0 mi North 18.4 mph 24.2 mph N/A   Overcast
11:15 PM 26.6 °F 13.4 °F 19.4 °F 74% 30.04 in 10.0 mi North 18.4 mph 26.5 mph N/A   Overcast
11:35 PM 26.6 °F 13.4 °F 19.4 °F 74% 30.04 in 10.0 mi North 18.4 mph 26.5 mph N/A   Overcast
11:55 PM 26.6 °F 13.1 °F 19.4 °F 74% 30.05 in 10.0 mi North 19.6 mph - N/A   Overcast